Overview Statistics Trail Chart Weather Telemetry Raw packets
 

This is the latest recevied weather packets stored in our database for station/object OE6ACM-10. If no packets are shown the sender has not sent any weather packets the latest 10 day(s).

<< 23 24 25 26 27 28 29 >>
Time Temp. Humidity Pressure Rain* Wind** Luminosity Snow
1788530545 46.67° C 43% 927.8 hPa - - - -
1788530245 46.67° C 39% 927.8 hPa - - - -
1788529945 45.56° C 48% 927.9 hPa - - - -
1788529645 44.44° C 52% 927.9 hPa - - - -
1788529345 42.22° C 53% 927.9 hPa - - - -
1788529045 41.67° C 48% 928 hPa - - - -
1788528745 41.67° C 55% 928 hPa - - - -
1788528445 41.11° C 56% 928.1 hPa - - - -
1788528145 41.11° C 51% 928.1 hPa - - - -
1788527845 43.33° C 46% 928.1 hPa - - - -
1788527545 43.33° C 51% 928.2 hPa - - - -
1788527245 43.33° C 50% 928.2 hPa - - - -
1788526945 42.78° C 50% 928.3 hPa - - - -
1788526645 42.22° C 62% 928.4 hPa - - - -
1788526362 42.22° C 55% 928.4 hPa - - - -
1788526045 42.22° C 54% 928.5 hPa - - - -
1788525745 42.78° C 63% 928.6 hPa - - - -
1788525445 42.78° C 65% 928.7 hPa - - - -
1788525145 41.67° C 78% 928.8 hPa - - - -
1788524845 41.11° C 79% 928.9 hPa - - - -
1788524545 40.56° C 97% 929 hPa - - - -
1788524245 39.44° C 85% 929 hPa - - - -
1788523945 38.89° C 96% 929.1 hPa - - - -
1788523645 37.22° C 100% 929.2 hPa - - - -
1788523345 36.67° C 100% 929.3 hPa - - - -

* Rain since midnight (hover to see other rain measurements)
** Current wind speed in m/s (hover to see current wind gust speed)